www.pogodaiklimat.ru
ПОГОДА в Моррисвилле
Время
и дата
00:54 19.05
01:54 19.05
02:54 19.05
03:54 19.05
04:54 19.05
05:54 19.05
06:54 19.05
07:54 19.05
08:54 19.05
09:54 19.05
10:54 19.05
11:54 19.05
12:54 19.05
13:54 19.05
14:54 19.05
15:54 19.05
16:54 19.05
17:54 19.05
18:54 19.05
19:54 19.05
20:54 19.05
21:54 19.05
22:54 19.05
23:54 19.05
00:54 20.05
01:54 20.05
02:54 20.05
03:54 20.05
04:54 20.05
05:54 20.05
06:54 20.05
07:54 20.05
08:54 20.05
09:54 20.05
10:54 20.05
11:54 20.05
12:54 20.05
13:54 20.05
14:54 20.05
15:54 20.05
16:54 20.05
17:54 20.05
18:54 20.05
19:54 20.05
20:54 20.05
21:54 20.05
22:54 20.05
23:54 20.05
Ветер
(напр.,м/с)
Видим. Явления Облачность Т
(С)
Тd
(С)
f
(%)
Тe
(С)
Тes
(С)
Комфортность P
(гПа)
Po
(гПа)
Тmin
(С)
Tmax
(С)
R
(мм)
R24
(мм)
S
(см)
Ю 2 16 км 8/8 1500 м +11.7 +9.4 86 +11 +11 1016.7 989.9 +11.7 +17.8
Ю 2 16 км 8/8 1500 м +10.6 +8.9 89 +9 +9 1016.6 989.9
Ю 2 16 км 10/10 1500 м +11.7 +10.0 89 +11 +11 1016.8 990.2
Ю 2 16 км 10/10 1500 м +12.2 +10.0 86 +11 +11 1016.9 990.2
штиль 0 16 км 10/10 1500 м +12.8 +10.6 86 +12 +12 1017.1 990.2
штиль 0 16 км 8/8 1650 м +12.2 +10.6 90 +12 +12 1017.7 990.9
Ю 2 16 км ясно +15.0 +11.7 81 +15 +16 1018.1 991.2 +10.6 +15.0 0.8
штиль 0 16 км 10/10 1800 м +16.7 +11.7 72 +17 +17 1018.3 991.5
штиль 0 16 км 10/10 1800 м +17.2 +11.7 70 +17 +17 1018.1 991.2
СВ 3 16 км 10/10 1800 м +18.9 +12.2 65 +20 +20 1017.8 990.9
нст 2 16 км 5/5 1650 м +21.1 +12.2 57 +23 +31 комфорт 1017.2 990.5
штиль 0 16 км 5/5 1440 м +21.7 +10.6 49 +23 +35 комфорт 1016.5 989.9
ЮВ 3 16 км 10/10 1650 м +22.8 +11.1 48 +25 +25 комфорт 1015.8 989.2 +15.6 +23.3
16 км 10/10 1500 м +21.7 +11.1 51 +24 +24 комфорт 1015.6 988.9
В 2 16 км 10/10 1500 м +21.7 +11.7 53 +24 +24 комфорт 1015.4 988.6
ЮВ 2 16 км 10/10 1650 м +22.2 +11.7 51 +24 +24 комфорт 1015.3 988.6
нст 2 16 км ясно +22.2 +11.7 51 +24 +31 комфорт 1015.3 988.6
ЮВ 3 16 км ясно +21.7 +11.1 51 +24 +26 комфорт 1015.4 988.9
ЮВ 3 16 км ясно +20.0 +11.1 57 +22 +23 комфорт 1015.6 988.9 +19.4 +22.8
штиль 0 16 км ясно +15.6 +11.7 78 +15 +16 1016.2 989.5
Ю 2 16 км ясно +13.9 +11.7 87 +13 +13 1016.7 989.9
штиль 0 16 км ясно +13.3 +11.1 87 +13 +13 1016.6 989.9
Ю 2 16 км ясно +12.2 +10.6 90 +11 +11 1016.7 989.9
Ю 2 16 км ясно +12.2 +10.6 90 +11 +11 1016.4 989.9
Ю 2 16 км ясно +12.2 +10.6 90 +11 +11 1016.4 989.9 +11.7 +20.0
штиль 0 16 км ясно +11.7 +10.0 89 +11 +11 1016.7 989.9
Ю 2 16 км ясно +10.0 +8.9 93 +8 +8 1016.5 989.5
штиль 0 16 км ясно +10.0 +8.3 89 +9 +9 1016.3 989.5
штиль 0 16 км ясно +10.0 +8.3 89 +9 +9 1016.6 989.9
штиль 0 16 км ясно +11.7 +10.6 93 +11 +11 1017.0 990.2
ЮВ 3 16 км ясно +14.4 +12.2 87 +13 +15 1017.1 990.5 +9.4 +14.4
штиль 0 16 км ясно +17.2 +12.8 75 +17 +23 1016.6 989.9
штиль 0 16 км ясно +20.0 +13.9 68 +22 +33 комфорт 1016.0 989.5
нст 2 16 км ясно +22.2 +14.4 61 +25 +38 комфорт 1016.1 989.5
В 2 16 км ясно +24.4 +15.0 56 +27 +43 жарко 1015.7 989.2
штиль 0 16 км ясно +26.1 +15.6 52 +29 +53 опасность
солнечного
удара
1015.1 988.6
штиль 0 16 км ясно +27.2 +13.9 44 +29 +54 опасность
солнечного
удара
1014.2 987.9 +14.4 +27.8
ЮВ 2 16 км 2/2 1800 м +27.8 +14.4 44 +30 +44 жарко 1013.7 987.2
ЮЗ 2 16 км 2/0 2250 m
[Ac]
+28.3 +12.8 38 +30 +42 жарко 1013.0 986.6
Ю 4 16 км ясно +28.3 +13.3 40 +30 +37 жарко 1012.6 986.2
СВ 2 16 км ясно +28.9 +12.8 37 +30 +37 жарко 1012.2 985.9
штиль 0 16 км ясно +26.7 +15.6 51 +30 +34 душно 1012.1 985.6
штиль 0 16 км ясно +22.2 +16.7 71 +27 +28 душно 1012.3 985.9 +22.2 +29.4
штиль 0 16 км 8/0 2250 m
[Ac]
+20.0 +16.1 78 +22 +22 комфорт 1012.9 986.2
ЮЗ 2 16 км 8/0 2400 m
[Ac]
+18.3 +15.6 84 +19 +19 1013.3 986.9
штиль 0 16 км ясно +16.7 +15.0 90 +17 +17 1013.1 986.6
штиль 0 16 км ясно +16.1 +14.4 90 +16 +16 1012.9 986.6
штиль 0 16 км ясно +15.0 +13.9 93 +15 +15 1012.7 986.2
Местоположение метеостанции Morrisville-Stowe State Airport: широта 44.5361 долгота -72.6161 высота над уровнем моря 223 м.
В архиве по умолчанию представлена погода в Моррисвилле за последние 1-2 суток. Обновление информации о фактической погоде в базе происходит ежечасно! Архивные данные за месяц целиком и за предыдущие месяцы Вы можете получить, выбрав интересующий диапазон дат из раскрывающегося списка и нажав кнопку "Ввод!".
Внимание! Архив погоды МЕТАР в базе сайта по станциям, не включенным в климатический монитор, хранится не более 60 дней. Нет смысла пытаться выбрать более раннюю дату.
*Определитесь, кто Вы:
Внимание! Время в таблицах - местное (без учета летнего времени). Для получения всемирного времени необходимо вычесть поправку, которая равна -5 ч.
Смотрите также архив погоды в соседних городах и на ближайших метеорологических станциях:
Партнеры нашего сайта:      
Пояснения к столбцам:
  • Ветер - указаны скорость ветра в м/с - средняя за 10 мин, порывы в срок и между сроками (в фигурных скобках) и направление, откуда дует ветер: С - северный,
  • СВ - северо-восточный, В - восточный, ЮВ - юго-восточный, Ю - южный, ЮЗ - юго-западный, З - западный, СЗ - северо-западный.
  • Видимость - горизонтальная дальность видимости в метрах или километрах. При видимости от 1 до 10 км при отсутствии осадков обычно наблюдается дымка, при ухудшении видимости до 1 км и менее - туман. В сухую погоду видимость может ухудшаться дымом, пылью или мглою.
  • Явления - указаны атмосферные явления, наблюдавшиеся в срок или в последний час перед сроком; фигурными скобками обозначены явления, наблюдавшиеся между сроками (за 1-3 часа до срока); квадратными скобками обозначены град или гололедные отложения с указанием их диаметра в мм.
  • Облачность - указаны через наклонную черту общая и нижняя облачность в баллах и высота нижней границы облаков в метрах; квадратными скобками обозначены формы облаков: Ci - перистые, Cs - перисто-слоистые, Cc - перисто-кучевые, Ac - высококучевые, As - высокослоистые, Sc - слоисто-кучевые, Ns - слоисто-дождевые, Cu - кучевые, Cb - кучево-дождевые. Подробнее классификацию облаков см. в Атласе облаков (PDF).
  • T - Температура воздуха - температура, измеренная на высоте 2 м над землей.
  • Td - Температура точки росы - температура, при понижении до которой содержащийся в воздухе водяной пар достигнет насыщения.
  • f - Относительная влажность воздуха - влажноcть воздуха, измеренная на высоте 2 м над землей.
  • Te - Эффективная температура - температура, которую ощущает одетый по сезону человек в тени. Характеристика душности погоды. При расчете учитывается влияние влажности воздуха и скорости ветра на теплоощущения человека.
  • Tes - Эффективная температура на солнце - температура, которую ощущает человек, с поправкой на солнечный нагрев. Характеристика знойности погоды. Зависит от высоты солнца над горизонтом, облачности и скорости ветра. Ночью, в пасмурную погоду, а также при ветре 12 м/с и более поправка равна нулю.
  • P - Атмосферное давление - приведенное к уровню моря атмосферное давление.
  • Po - Атмосферное давление - измеренное на уровне метеостанции атмосферное давление.
  • Tmin - Минимальная температура - минимум температуры воздуха на высоте 2 м над землей.
  • Tmax - Максимальная температура - максимум температуры воздуха на высоте 2 м над землей.
  • R - Количество осадков - Количество выпавших осадков за период времени, мм. При наведении курсора мыши на число - период времени, за который выпало указанное количество осадков.
  • R24 - Количество осадков - Количество выпавших осадков за 24 часа, мм.
  • S - Снежный покров - Высота снежного покрова, см. При наведении курсора мыши на число - состояние снежного покрова и степень покрытия местности в баллах.